Weather History for MMCP - November, 2012

Change the Weather History Date:

Thursday, November 22, 2012

  Actual Average Record
Temperature  
Mean Temperature 72 °F -  
Max Temperature 87 °F 82 °F - (-1)
Min Temperature 56 °F 66 °F - (-1)
Cooling Degree Days 6    
Growing Degree Days 22 (Base 50)    
Moisture  
Dew Point 62 °F    
Average Humidity 70    
Maximum Humidity 100    
Minimum Humidity 33    
Precipitation  
Precipitation 0.00 in - - ()
Sea Level Pressure  
Sea Level Pressure 30.08 in    
Wind  
Wind Speed 3 mph ()    
Max Wind Speed 13 mph    
Max Gust Speed -    
Visibility 6.6 miles    
Events      
Averages and records for this station are not official NWS values.
T = Trace of Precipitation, MM = Missing Value Source: Averaged Metar Reports

Daily Weather History Graph

Daily Weather History Graph

Search for Another Location

Airport or City:

Trip Planner

Search our weather history database for the weather conditions in past years. The results will help you decide how hot, cold, wet, or windy it might be!

Date:

Astronomy

Nov. 22, 2012 Rise Set
Actual Time 6:15 AM CST 5:21 PM CST
Civil Twilight 5:51 AM CST 5:44 PM CST
Nautical Twilight 5:24 AM CST 6:11 PM CST
Astronomical Twilight 4:58 AM CST 6:38 PM CST
Moon 1:32 PM CST (11/22) 1:14 AM CST (11/22)
Length of Visible Light 11h 53m
Length of Day
11h 06m
Waxing Gibbous, 71% of the Moon is Illuminated
Nov 22
Waxing Gibbous
Nov 28
Full
Dec 6
Last Quarter
Dec 13
New
Dec 19
First Quarter

Hourly Weather History & Observations

Time (CST) Temp. Heat Index Dew Point Humidity Pressure Visibility Wind Dir Wind Speed Gust Speed Precip Events Conditions
2:50 AM 60 °F - 59 °F 95% 30.06 in 4 mi Calm Calm - -  
5:25 AM 60.8 °F - 60.8 °F 100% 30.08 in 7.0 mi Calm Calm - N/A   Clear
5:50 AM 56 °F - 56 °F 100% 30.08 in 6 mi Calm Calm - -  
5:51 AM 60.8 °F - 60.8 °F 100% 30.08 in 7.0 mi Calm Calm - N/A   Clear
6:52 AM 62.6 °F - 60.8 °F 94% 30.10 in 7.0 mi Calm Calm - N/A   Partly Cloudy
7:48 AM 68.0 °F - 62.6 °F 83% 30.12 in 7.0 mi Calm Calm - N/A   Clear
8:45 AM 73 °F - 62 °F 59% 30.11 in 6 mi WNW 2.2 mph - -  
8:45 AM 73.4 °F - 62.6 °F 69% 30.13 in 7.0 mi Calm Calm - N/A   Clear
9:51 AM 77.0 °F - 57.2 °F 50% 30.13 in 7.0 mi North 11.5 mph - N/A   Clear
10:42 AM 78.8 °F - 57.2 °F 47% 30.13 in 7.0 mi NNE 11.5 mph - N/A   Clear
11:45 AM 80.6 °F 80.5 °F 55.4 °F 42% 30.10 in 7.0 mi East 4.6 mph - N/A   Partly Cloudy
12:48 PM 82.4 °F 81.4 °F 53.6 °F 37% 30.05 in 7.0 mi East 5.8 mph - N/A   Partly Cloudy
1:45 PM 84.2 °F - 51.8 °F 33% 30.04 in 7.0 mi East 5.8 mph - N/A   Partly Cloudy
2:50 PM 80 °F - 67 °F 55% 30.03 in 6 mi West 4.5 mph - -  
2:52 PM 77.0 °F - 66.2 °F 69% 30.03 in 7.0 mi NNW 6.9 mph - N/A   Partly Cloudy
3:44 PM 77.0 °F - 66.2 °F 69% 30.02 in 7.0 mi NNW 10.4 mph - N/A   Partly Cloudy
4:45 PM 77.0 °F - 68.0 °F 74% 30.02 in 7.0 mi NNW 11.5 mph - N/A   Partly Cloudy
5:42 PM 75.2 °F - 66.2 °F 73% 30.04 in 7.0 mi North 12.7 mph - N/A   Partly Cloudy
5:50 PM 76 °F - 67 °F 66% 30.04 in 4 mi NNW 4.5 mph - -  
6:41 PM 75.2 °F - 69.8 °F 83% 30.05 in 7.0 mi North 8.1 mph - N/A   Mostly Cloudy
8:45 PM 73.4 °F - 62.6 °F 69% 30.10 in 7.0 mi NNE 11.5 mph - N/A   Scattered Clouds
10:51 PM 69.8 °F - 62.6 °F 78% 30.12 in 7.0 mi ENE 6.9 mph - N/A   Partly Cloudy